SAS7002 ESSV-ESSA

Flight info

Callsign SAS7002
Flight time 0h 27m
Altitude 19000
Route ROGMI Z229 NILUG
Aircraft A20N/M-SDE2E3FGHIRWXY/LB1

Departure

Time 2026-05-07 14:33
Airport Visby Airport (ESSV)

Arrival

Time 2026-05-07 15:01
Airport Stockholm-Arlanda Airport (ESSA)
Time Latitude Longitude Altitude Speed Heading
2026-05-07 13:47 57.66061 18.33952 146 ft 0 kts 331°
2026-05-07 14:25 57.66056 18.33957 147 ft 2 kts 331°
2026-05-07 14:25 57.66043 18.33970 147 ft 1 kts 332°
2026-05-07 14:26 57.66037 18.33982 147 ft 1 kts 274°
2026-05-07 14:26 57.66039 18.33998 147 ft 1 kts 219°
2026-05-07 14:26 57.66051 18.34006 147 ft 2 kts 196°
2026-05-07 14:26 57.66058 18.34011 146 ft 0 kts 206°
2026-05-07 14:29 57.66057 18.34010 146 ft 0 kts 206°
2026-05-07 14:29 57.66043 18.34004 146 ft 3 kts 184°
2026-05-07 14:29 57.66021 18.34046 147 ft 6 kts 109°
2026-05-07 14:30 57.65978 18.34083 147 ft 9 kts 197°
2026-05-07 14:30 57.65907 18.34031 147 ft 12 kts 201°
2026-05-07 14:30 57.65821 18.33971 147 ft 14 kts 201°
2026-05-07 14:30 57.65724 18.33900 148 ft 16 kts 200°
2026-05-07 14:31 57.65617 18.33823 149 ft 16 kts 201°
2026-05-07 14:31 57.65517 18.33752 150 ft 14 kts 194°
2026-05-07 14:31 57.65428 18.33796 150 ft 13 kts 134°
2026-05-07 14:31 57.65421 18.33957 151 ft 13 kts 64°
2026-05-07 14:32 57.65473 18.34047 151 ft 1 kts 21°
2026-05-07 14:32 57.65474 18.34047 151 ft 0 kts 21°
2026-05-07 14:32 57.65604 18.34142 150 ft 55 kts 20°
2026-05-07 14:33 57.66194 18.34562 145 ft 124 kts 20°
2026-05-07 14:33 57.67125 18.35225 470 ft 150 kts 18°
2026-05-07 14:33 57.68122 18.35762 1130 ft 152 kts
2026-05-07 14:33 57.69088 18.35125 1855 ft 155 kts 332°
2026-05-07 14:34 57.70056 18.34217 2371 ft 164 kts 341°
2026-05-07 14:34 57.71195 18.33462 2820 ft 181 kts 343°
2026-05-07 14:34 57.72425 18.32679 3275 ft 198 kts 342°
2026-05-07 14:34 57.73788 18.31791 3657 ft 221 kts 342°
2026-05-07 14:35 57.75306 18.30781 4194 ft 240 kts 341°
2026-05-07 14:35 57.76914 18.29694 4807 ft 255 kts 341°
2026-05-07 14:35 57.78577 18.28558 5688 ft 259 kts 341°
2026-05-07 14:35 57.80261 18.27404 6651 ft 261 kts 340°
2026-05-07 14:36 57.81949 18.26246 7599 ft 264 kts 340°
2026-05-07 14:36 57.83669 18.25064 8502 ft 268 kts 340°
2026-05-07 14:36 57.85422 18.23856 9371 ft 272 kts 339°
2026-05-07 14:36 57.87178 18.22646 10240 ft 275 kts 339°
2026-05-07 14:37 57.88996 18.21392 10924 ft 287 kts 339°
2026-05-07 14:37 57.92962 18.18638 11784 ft 323 kts 338°
2026-05-07 14:37 57.95125 18.17135 12166 ft 341 kts 338°
2026-05-07 14:38 57.97398 18.15553 12492 ft 359 kts 338°
2026-05-07 14:38 57.99758 18.13909 12909 ft 372 kts 338°
2026-05-07 14:38 58.02212 18.12203 13598 ft 377 kts 338°
2026-05-07 14:38 58.04650 18.10506 14304 ft 380 kts 338°
2026-05-07 14:39 58.07124 18.08781 14975 ft 384 kts 337°
2026-05-07 14:39 58.09659 18.07011 15638 ft 388 kts 337°
2026-05-07 14:39 58.12196 18.05233 16279 ft 392 kts 337°
2026-05-07 14:39 58.14738 18.03447 16846 ft 397 kts 336°
2026-05-07 14:40 58.17339 18.01726 17464 ft 401 kts 340°
2026-05-07 14:40 58.20060 18.00383 17925 ft 406 kts 345°
2026-05-07 14:40 58.22863 17.99504 18078 ft 408 kts 349°
2026-05-07 14:40 58.25651 17.98931 18081 ft 408 kts 351°
2026-05-07 14:41 58.28478 17.98420 18082 ft 408 kts 351°
2026-05-07 14:41 58.31300 17.97917 18080 ft 408 kts 351°
2026-05-07 14:41 58.34131 17.97406 18081 ft 407 kts 351°
2026-05-07 14:41 58.36947 17.96892 18077 ft 407 kts 351°
2026-05-07 14:42 58.39743 17.96376 18077 ft 407 kts 351°
2026-05-07 14:42 58.42531 17.95858 18077 ft 407 kts 351°
2026-05-07 14:42 58.45381 17.95325 18077 ft 408 kts 351°
2026-05-07 14:42 58.48200 17.94798 18078 ft 408 kts 351°
2026-05-07 14:43 58.50982 17.94276 18074 ft 408 kts 351°
2026-05-07 14:43 58.53827 17.93741 18077 ft 408 kts 351°
2026-05-07 14:43 58.56615 17.93217 18070 ft 408 kts 351°
2026-05-07 14:43 58.59465 17.92680 18072 ft 408 kts 351°
2026-05-07 14:44 58.62299 17.92573 18070 ft 413 kts
2026-05-07 14:44 58.65128 17.93349 18076 ft 415 kts
2026-05-07 14:44 58.67971 17.94335 18075 ft 415 kts
2026-05-07 14:44 58.70795 17.95307 18074 ft 414 kts
2026-05-07 14:45 58.73624 17.96235 18073 ft 414 kts
2026-05-07 14:45 58.76450 17.97127 18066 ft 413 kts
2026-05-07 14:45 58.79272 17.97943 18073 ft 413 kts
2026-05-07 14:45 58.82123 17.98621 18073 ft 412 kts
2026-05-07 14:46 58.84946 17.99262 18065 ft 413 kts
2026-05-07 14:46 58.87820 17.99911 18074 ft 413 kts
2026-05-07 14:46 58.90653 18.00557 18076 ft 413 kts
2026-05-07 14:46 58.93486 18.01210 18072 ft 413 kts
2026-05-07 14:47 58.96316 18.01871 18054 ft 413 kts
2026-05-07 14:47 58.99166 18.02545 18064 ft 413 kts
2026-05-07 14:47 59.02015 18.03217 18059 ft 412 kts
2026-05-07 14:47 59.04844 18.03888 18065 ft 411 kts
2026-05-07 14:48 59.07673 18.04561 17815 ft 405 kts
2026-05-07 14:48 59.10435 18.05211 17124 ft 403 kts
2026-05-07 14:48 59.13203 18.05858 16411 ft 399 kts
2026-05-07 14:48 59.15920 18.06481 15808 ft 395 kts
2026-05-07 14:49 59.18649 18.07089 15138 ft 391 kts
2026-05-07 14:49 59.21300 18.07665 14490 ft 387 kts
2026-05-07 14:49 59.23966 18.08248 13868 ft 382 kts
2026-05-07 14:49 59.26588 18.08818 13257 ft 379 kts
2026-05-07 14:50 59.29165 18.09365 12657 ft 375 kts
2026-05-07 14:50 59.31779 18.09907 12028 ft 372 kts
2026-05-07 14:50 59.34324 18.10417 11421 ft 369 kts
2026-05-07 14:50 59.36836 18.10900 10812 ft 366 kts
2026-05-07 14:51 59.39361 18.11365 10193 ft 363 kts
2026-05-07 14:51 59.41836 18.11799 9660 ft 359 kts
2026-05-07 14:51 59.44320 18.12220 9141 ft 358 kts
2026-05-07 14:51 59.46777 18.12629 8629 ft 356 kts
2026-05-07 14:52 59.49235 18.13032 8116 ft 353 kts
2026-05-07 14:52 59.51663 18.13415 7603 ft 351 kts
2026-05-07 14:52 59.54097 18.13786 7169 ft 347 kts
2026-05-07 14:52 59.56462 18.14144 6833 ft 337 kts
2026-05-07 14:53 59.58739 18.14484 6407 ft 330 kts
2026-05-07 14:53 59.61014 18.14817 6025 ft 322 kts
2026-05-07 14:53 59.63197 18.15123 5651 ft 315 kts
2026-05-07 14:53 59.65319 18.15408 5270 ft 300 kts
2026-05-07 14:54 59.67388 18.15673 4901 ft 294 kts
2026-05-07 14:54 59.69388 18.15917 4526 ft 288 kts
2026-05-07 14:54 59.71329 18.16139 4141 ft 272 kts
2026-05-07 14:54 59.73177 18.16328 3757 ft 257 kts
2026-05-07 14:55 59.74948 18.16482 3273 ft 258 kts
2026-05-07 14:55 59.76756 18.16614 2780 ft 261 kts
2026-05-07 14:55 59.78538 18.16717 2512 ft 255 kts
2026-05-07 14:55 59.80251 18.16259 2482 ft 253 kts 339°
2026-05-07 14:56 59.81669 18.14201 2487 ft 258 kts 309°
2026-05-07 14:56 59.82447 18.10992 2481 ft 262 kts 285°
2026-05-07 14:56 59.82749 18.07400 2482 ft 263 kts 274°
2026-05-07 14:56 59.82435 18.03893 2472 ft 261 kts 245°
2026-05-07 14:57 59.81337 18.01211 2470 ft 243 kts 213°
2026-05-07 14:57 59.79842 18.00133 2453 ft 219 kts 181°
2026-05-07 14:57 59.78399 18.00161 2542 ft 200 kts 177°
2026-05-07 14:57 59.77057 18.00100 2498 ft 186 kts 183°
2026-05-07 14:58 59.75809 17.99826 2283 ft 180 kts 187°
2026-05-07 14:58 59.74600 17.99430 2030 ft 171 kts 188°
2026-05-07 14:58 59.73440 17.99000 1807 ft 170 kts 188°
2026-05-07 14:58 59.72276 17.98566 1615 ft 170 kts 188°
2026-05-07 14:59 59.71146 17.98153 1383 ft 161 kts 188°
2026-05-07 14:59 59.70093 17.97772 1159 ft 148 kts 189°
2026-05-07 14:59 59.69126 17.97423 951 ft 137 kts 189°
2026-05-07 14:59 59.68186 17.97082 786 ft 136 kts 189°
2026-05-07 15:00 59.67244 17.96759 621 ft 136 kts 189°
2026-05-07 15:00 59.66328 17.96414 432 ft 134 kts 191°
2026-05-07 15:00 59.65403 17.96082 245 ft 133 kts 191°
2026-05-07 15:00 59.64513 17.95754 110 ft 126 kts 191°
2026-05-07 15:01 59.63814 17.95501 114 ft 77 kts 191°
2026-05-07 15:01 59.63473 17.95353 123 ft 31 kts 202°
2026-05-07 15:01 59.63331 17.95185 126 ft 19 kts 221°
2026-05-07 15:01 59.63255 17.95049 128 ft 13 kts 228°
2026-05-07 15:02 59.63280 17.94903 127 ft 14 kts 349°
2026-05-07 15:02 59.63389 17.94937 124 ft 17 kts 11°
2026-05-07 15:02 59.63514 17.94980 121 ft 19 kts 10°
2026-05-07 15:02 59.63652 17.95032 117 ft 21 kts 11°
2026-05-07 15:03 59.63802 17.95086 113 ft 22 kts 10°
2026-05-07 15:03 59.63962 17.95143 110 ft 23 kts 10°
2026-05-07 15:03 59.64124 17.95204 108 ft 24 kts 10°
2026-05-07 15:03 59.64291 17.95263 106 ft 24 kts
2026-05-07 15:04 59.64455 17.95323 105 ft 23 kts 11°
2026-05-07 15:04 59.64617 17.95381 105 ft 23 kts 10°
2026-05-07 15:04 59.64770 17.95439 107 ft 22 kts
2026-05-07 15:04 59.64918 17.95491 108 ft 21 kts 10°
2026-05-07 15:05 59.65061 17.95499 109 ft 19 kts 346°
2026-05-07 15:05 59.65187 17.95433 112 ft 17 kts 345°
2026-05-07 15:05 59.65308 17.95369 116 ft 18 kts 343°
2026-05-07 15:05 59.65429 17.95307 119 ft 18 kts 345°
2026-05-07 15:06 59.65555 17.95240 122 ft 18 kts 345°
2026-05-07 15:06 59.65680 17.95175 124 ft 17 kts 345°
2026-05-07 15:06 59.65750 17.95050 126 ft 14 kts 273°
2026-05-07 15:06 59.65731 17.94853 126 ft 14 kts 256°
2026-05-07 15:07 59.65706 17.94652 125 ft 15 kts 256°
2026-05-07 15:07 59.65678 17.94437 124 ft 17 kts 255°
2026-05-07 15:07 59.65648 17.94201 122 ft 18 kts 256°
2026-05-07 15:07 59.65615 17.93944 117 ft 16 kts 255°
2026-05-07 15:08 59.65526 17.93887 116 ft 16 kts 166°
2026-05-07 15:08 59.65414 17.93942 115 ft 17 kts 165°
2026-05-07 15:08 59.65338 17.93949 114 ft 10 kts 214°
2026-05-07 15:08 59.65314 17.93867 113 ft 4 kts 253°
2026-05-07 15:09 59.65310 17.93838 113 ft 0 kts 256°
2026-05-07 15:09 59.65310 17.93837 113 ft 0 kts 256°